Weather History for Farmingdale, NY

Change the Weather History Date:

Monday, June 3, 2013

  Actual Average Record
Temperature  
Mean Temperature 68 °F -  
Max Temperature 73 °F 70 °F 86 °F (1999)
Min Temperature 62 °F 54 °F 50 °F (1997)
Cooling Degree Days 2    
Growing Degree Days 18 (Base 50)    
Moisture  
Dew Point 64 °F    
Average Humidity 90    
Maximum Humidity 100    
Minimum Humidity 49    
Precipitation  
Precipitation 0.40 in - - ()
Sea Level Pressure  
Sea Level Pressure 29.84 in    
Wind  
Wind Speed 8 mph (SW)    
Max Wind Speed 13 mph    
Max Gust Speed 21 mph    
Visibility 7 miles    
Events Rain    
Averages and records for this station are not official NWS values.
T = Trace of Precipitation, MM = Missing Value Source: NWS Daily Summary

Daily Weather History Graph

Daily Weather History Graph

Search for Another Location

Airport:

Trip Planner

Search our weather history database for the weather conditions in past years. The results will help you decide how hot, cold, wet, or windy it might be!

Date:

Astronomy

Jun. 03, 2013 Rise Set
Actual Time 5:23 AM EDT 8:20 PM EDT
Civil Twilight 4:50 AM EDT 8:53 PM EDT
Nautical Twilight 4:09 AM EDT 9:34 PM EDT
Astronomical Twilight 3:21 AM EDT 10:23 PM EDT
Moon 2:21 AM EDT (6/3) 3:46 PM EDT (6/3)
Length of Visible Light 16h 02m
Length of Day
14h 56m
Waning Crescent, 22% of the Moon is Illuminated
Jun 3
Waning Crescent
Jun 8
New
Jun 16
First Quarter
Jun 23
Full
Jun 30
Last Quarter

Hourly Weather History & Observations

Time (EDT) Temp. Dew Point Humidity Pressure Visibility Wind Dir Wind Speed Gust Speed Precip Events Conditions
12:53 AM 64.9 °F 62.1 °F 90% 29.84 in 10.0 mi SW 8.1 mph - N/A   Scattered Clouds
1:53 AM 64.9 °F 62.1 °F 90% 29.85 in 10.0 mi SSW 6.9 mph - N/A   Overcast
2:53 AM 69.1 °F 64.9 °F 87% 29.84 in 10.0 mi WSW 12.7 mph - N/A   Mostly Cloudy
3:53 AM 69.1 °F 66.9 °F 93% 29.83 in 8.0 mi West 10.4 mph 20.7 mph 0.03 in Rain Rain
4:53 AM 69.1 °F 66.9 °F 93% 29.82 in 10.0 mi West 6.9 mph - 0.02 in Rain Light Rain
5:34 AM 69.8 °F 68.0 °F 94% 29.84 in 10.0 mi South 9.2 mph - 0.01 in Rain Light Rain
5:42 AM 64.4 °F 64.4 °F 100% 29.85 in 7.0 mi South 12.7 mph 17.3 mph 0.02 in Rain Light Rain
5:53 AM 64.0 °F 63.0 °F 96% 29.85 in 5.0 mi South 11.5 mph - 0.02 in   Mostly Cloudy
6:17 AM 62.6 °F 62.6 °F 100% 29.85 in 1.8 mi SSW 11.5 mph - 0.00 in   Overcast
6:32 AM 62.6 °F 62.6 °F 100% 29.86 in 3.0 mi SSW 9.2 mph - 0.01 in Rain Light Rain
6:53 AM 64.0 °F 63.0 °F 96% 29.85 in 3.0 mi SW 9.2 mph - 0.05 in Rain Rain
7:01 AM 64.4 °F 64.4 °F 100% 29.85 in 2.0 mi SW 5.8 mph - 0.03 in Rain Heavy Rain
7:11 AM 64.4 °F 64.4 °F 100% 29.85 in 5.0 mi SSW 6.9 mph - 0.04 in Rain Light Rain
7:53 AM 66.0 °F 64.9 °F 96% 29.85 in 7.0 mi SW 10.4 mph - 0.04 in   Overcast
8:53 AM 64.9 °F 64.0 °F 97% 29.86 in 3.0 mi SW 9.2 mph - 0.03 in Rain Rain
9:18 AM 64.4 °F 64.4 °F 100% 29.86 in 2.5 mi SSW 10.4 mph - 0.09 in Rain Heavy Rain
9:30 AM 64.4 °F 64.4 °F 100% 29.86 in 3.0 mi SW 6.9 mph - 0.13 in Rain Rain
9:53 AM 64.9 °F 64.9 °F 100% 29.86 in 3.0 mi SSW 8.1 mph - 0.19 in Rain Rain
10:39 AM 64.4 °F 64.4 °F 100% 29.85 in 1.8 mi SW 10.4 mph - 0.02 in Rain Light Rain
10:53 AM 66.0 °F 64.9 °F 96% 29.86 in 3.0 mi SW 10.4 mph - 0.02 in Rain Light Rain
11:53 AM 66.0 °F 64.9 °F 96% 29.85 in 3.0 mi SW 6.9 mph - 0.00 in   Overcast
12:07 PM 66.2 °F 64.4 °F 94% 29.86 in 3.0 mi SW 5.8 mph - N/A   Overcast
12:25 PM 68.0 °F 64.4 °F 88% 29.85 in 3.0 mi SSW 5.8 mph - N/A   Overcast
12:53 PM 69.1 °F 66.0 °F 90% 29.84 in 3.0 mi Calm Calm - N/A   Overcast
1:22 PM 71.6 °F 66.2 °F 83% 29.84 in 10.0 mi Calm Calm - N/A   Mostly Cloudy
1:37 PM 71.6 °F 68.0 °F 88% 29.84 in 10.0 mi Calm Calm - N/A   Scattered Clouds
1:53 PM 73.0 °F 68.0 °F 84% 29.83 in 10.0 mi NNE 4.6 mph - N/A   Partly Cloudy
2:29 PM 71.6 °F 66.2 °F 83% 29.84 in 10.0 mi Calm Calm - N/A   Overcast
2:37 PM 71.6 °F 66.2 °F 83% 29.85 in 10.0 mi South 9.2 mph - N/A   Overcast
2:44 PM 69.8 °F 64.4 °F 83% 29.85 in 10.0 mi SSW 9.2 mph - N/A   Overcast
2:53 PM 69.1 °F 64.9 °F 87% 29.85 in 10.0 mi South 8.1 mph - N/A   Overcast
3:53 PM 72.0 °F 66.9 °F 84% 29.83 in 10.0 mi South 5.8 mph - N/A   Clear
4:53 PM 70.0 °F 66.0 °F 87% 29.82 in 10.0 mi SSW 12.7 mph - N/A   Mostly Cloudy
5:12 PM 68.0 °F 64.4 °F 88% 29.82 in 10.0 mi SW 5.8 mph - N/A   Mostly Cloudy
5:53 PM 69.1 °F 64.9 °F 87% 29.81 in 10.0 mi SW 6.9 mph - N/A   Scattered Clouds
6:53 PM 69.1 °F 64.9 °F 87% 29.82 in 10.0 mi West 6.9 mph - N/A   Mostly Cloudy
7:53 PM 70.0 °F 64.9 °F 84% 29.82 in 10.0 mi WSW 3.5 mph - N/A   Overcast
8:53 PM 70.0 °F 64.9 °F 84% 29.83 in 10.0 mi West 3.5 mph - N/A   Overcast
9:53 PM 70.0 °F 66.0 °F 87% 29.84 in 10.0 mi Calm Calm - N/A   Overcast
10:53 PM 71.1 °F 60.1 °F 68% 29.85 in 10.0 mi NNW 9.2 mph - N/A   Overcast
11:53 PM 70.0 °F 50.0 °F 49% 29.86 in 10.0 mi NNW 11.5 mph 20.7 mph N/A   Overcast